DW9231 Weather Reports


time (UTC)temp
C
wind
direction
speed
KPH
gust
KPH
rain 1hr
cm
rain 24hr
cm
rain mn
cm
humidity
%
barometer
mb
20260505211518 15 164 3.2 11.3 0.00 0.05 0.05 52 1009.8
20260505210024 15 201 3.2 9.7 0.00 0.05 0.05 52 1009.7
20260505204514 14 258 3.2 9.7 0.00 0.05 0.05 57 1009.8
20260505203013 13 39 1.6 9.7 0.00 0.05 0.05 58 1010.1
20260505201512 13 353 1.6 8.0 0.00 0.05 0.05 61 1010.1
20260505200019 12 274 0.0 6.4 0.03 0.05 0.05 66 1010.3
20260505194513 11 117 0.0 8.0 0.05 0.05 0.05 71 1010.5
20260505193010 11 254 0.0 1.6 0.05 0.05 0.05 74 1010.6
20260505191508 11 211 1.6 6.4 0.05 0.05 0.05 73 1010.8
20260505190007 10 183 0.0 6.4 0.03 0.03 0.03 81 1010.8
20260505184504 11 221 3.2 9.7 0.03 0.03 0.03 75 1010.9
20260505183001 12 165 6.4 12.9 0.00 0.00 0.00 57 1010.6
20260505181601 13 144 6.4 14.5 0.00 0.00 0.00 52 1010.4
20260505180059 15 154 3.2 16.1 0.00 0.00 0.00 47 1010.4
20260505174606 15 196 6.4 14.5 0.00 0.00 0.00 46 1010.3
20260505173058 13 39 0.0 6.4 0.00 0.00 0.00 48 1010.4
20260505171604 12 218 0.0 6.4 0.00 0.00 0.00 51 1010.5
20260505170056 12 220 1.6 6.4 0.00 0.00 0.00 53 1010.8
20260505164616 11 234 0.0 6.4 0.00 0.00 0.00 55 1010.4
20260505163102 11 274 1.6 8.0 0.00 0.00 0.00 57 1010.6
20260505161610 11 239 1.6 11.3 0.00 0.00 0.00 58 1011.0
20260505153048 10 261 8.0 16.1 0.00 0.00 0.00 60 1011.3
20260505151547 10 301 3.2 12.9 0.00 0.00 0.00 64 1011.4
20260505124526 11 346 0.0 3.2 0.00 0.00 0.00 45 1010.6
20260505123023 12 6 0.0 0.0 0.00 0.00 0.00 44 1010.9
20260505121524 12 6 0.0 3.2 0.00 0.00 0.00 43 1011.0
20260505120023 12 359 0.0 0.0 0.00 0.00 0.00 43 1010.8
20260505114522 12 139 0.0 0.0 0.00 0.00 0.00 42 1010.6
20260505113020 12 139 0.0 1.6 0.00 0.00 0.00 41 1010.6
20260505111524 12 118 0.0 3.2 0.00 0.00 0.00 40 1010.5
20260505101514 12 226 0.0 0.0 0.00 0.00 0.00 37 1010.6
20260505100018 12 167 0.0 3.2 0.00 0.00 0.00 36 1010.4
20260505094516 12 353 0.0 3.2 0.00 0.00 0.00 36 1010.4
20260505093010 13 357 1.6 4.8 0.00 0.00 0.00 37 1010.4
20260505091509 13 20 0.0 3.2 0.00 0.00 0.00 36 1010.6
20260505090007 13 124 0.0 3.2 0.00 0.00 0.00 37 1011.0
20260505084506 13 104 0.0 3.2 0.00 0.00 0.00 36 1011.2
20260505083012 13 193 1.6 8.0 0.00 0.00 0.00 35 1011.6
20260505081507 13 120 3.2 8.0 0.00 0.00 0.00 35 1011.5
20260505080003 14 158 3.2 12.9 0.00 0.00 0.00 35 1011.4
20260505074502 14 232 1.6 8.0 0.00 0.00 0.00 35 1011.7
20260505073100 15 237 0.0 4.8 0.00 0.00 0.00 33 1011.5
20260505071610 15 72 0.0 8.0 0.00 0.00 0.00 32 1011.4
20260505070105 15 169 1.6 11.3 0.00 0.00 0.00 32 1011.3
20260505064556 15 165 4.8 11.3 0.00 0.00 0.00 31 1011.3
20260505063051 15 204 0.0 6.4 0.00 0.00 0.00 30 1011.0
20260505061548 16 165 1.6 14.5 0.00 0.00 0.00 29 1011.2
20260505060046 16 159 1.6 14.5 0.00 0.00 0.00 28 1011.2
20260505054553 16 167 9.7 16.1 0.00 0.00 0.00 27 1011.2
20260505053055 16 149 3.2 14.5 0.00 0.00 0.00 27 1010.9
20260505051546 16 181 4.8 11.3 0.00 0.00 0.00 27 1010.8
20260505041546 17 128 1.6 9.7 0.00 0.00 0.00 27 1010.8
20260505040045 17 178 0.0 8.0 0.00 0.00 0.00 27 1010.8
20260505034544 17 199 0.0 6.4 0.00 0.00 0.00 26 1010.8
20260505033047 17 132 0.0 8.0 0.00 0.00 0.00 26 1010.6
20260505031543 18 182 1.6 6.4 0.00 0.00 0.00 25 1010.4
20260505030041 18 193 1.6 11.3 0.00 0.00 0.00 24 1010.2
20260505024541 18 174 3.2 14.5 0.00 0.00 0.00 23 1010.0
20260505023042 18 193 3.2 12.9 0.00 0.00 0.00 23 1009.9
20260505021540 19 187 6.4 22.5 0.00 0.00 0.00 23 1009.8
20260505020040 19 202 1.6 14.5 0.00 0.00 0.00 23 1009.5
20260505014539 20 179 1.6 9.7 0.00 0.00 0.00 23 1009.4
20260505013038 20 206 3.2 8.0 0.00 0.00 0.00 22 1009.2
20260505011549 20 183 3.2 14.5 0.00 0.00 0.00 21 1009.0
20260505010040 20 212 4.8 11.3 0.00 0.00 0.00 21 1009.0
20260505004540 20 196 3.2 12.9 0.00 0.00 0.00 20 1009.1
20260505003037 20 180 3.2 12.9 0.00 0.00 0.00 19 1009.1
20260505001538 20 131 3.2 16.1 0.00 0.00 0.00 19 1009.4
20260505000037 21 158 3.2 11.3 0.00 0.00 0.00 17 1009.3
20260504234535 21 205 4.8 14.5 0.00 0.00 0.00 17 1009.3
20260504233039 21 238 6.4 19.3 0.00 0.00 0.00 17 1009.6
20260504231532 21 180 3.2 24.1 0.00 0.00 0.00 16 1009.5
20260504230032 21 214 6.4 14.5 0.00 0.00 0.00 16 1009.6
20260504224532 22 173 6.4 17.7 0.00 0.00 0.00 15 1009.6
20260504223030 22 173 9.7 25.7 0.00 0.00 0.00 14 1009.8
20260504221531 22 257 8.0 20.9 0.00 0.00 0.00 14 1009.9
20260504220028 22 195 4.8 27.4 0.00 0.00 0.00 18 1009.9
20260504214527 22 153 1.6 17.7 0.00 0.00 0.00 22 1010.2
20260504213026 21 180 3.2 25.7 0.00 0.00 0.00 22 1010.4